Regional Weather Roundup
Issued by NWS Little Rock, AR

Home | Current Version | Previous Version | Text Only | Print | Product List | Glossary On
Versions: 1 2 3 4 5 6 7 8 9 10 11 12 13 14 15 16 17 18 19 20 21 22 23 24 25 26 27 28 29 30 31 32 33 34 35 36 37 38 39 40 41 42 43 44 45 46 47 48 49 50
000
ASUS44 KLZK 240105
RWRLZK

WEATHER ROUNDUP FOR ARKANSAS
NATIONAL WEATHER SERVICE LITTLE ROCK AR
700 PM CST SUN NOV 23 2014

NOTE: "FAIR" INDICATES FEW OR NO CLOUDS BELOW 12,000 FEET WITH NO
SIGNIFICANT WEATHER AND/OR OBSTRUCTIONS TO VISIBILITY.

ARZ001-003-010-029-240200-
NORTHWEST ARKANSAS

CITY           SKY/WX    TMP DP  RH WIND       PRES   REMARKS
FAYETTEVILLE   RAIN      58  54  86 SW18G26   29.35R
FORT SMITH     MOCLDY    63  50  62 W18G36    29.37R
HARRISON       CLOUDY    56  54  93 S9        29.32S
BENTONVILLE    MOCLDY    55  52  88 SW6       29.34R
ROGERS         MOCLDY    55  53  93 SW8       29.33R
SILOAM SPGS    CLOUDY    59  48  67 W14G23    29.36R
HIGHFILL       CLOUDY    57  32  38 SW7       29.33R
SPRINGDALE     CLOUDY    59  55  88 SW5       29.35R
$$

ARZ004-005-016-240200-
NORTH CENTRAL ARKANSAS

CITY           SKY/WX    TMP DP  RH WIND       PRES   REMARKS
BATESVILLE     CLOUDY    61  57  88 S7        29.38S
FLIPPIN        PTCLDY    55  52  88 SE6       29.33S
MTN HOME       MOCLDY    55  55 100 SE5       29.32S
$$

ARZ040-041-240200-
WEST CENTRAL ARKANSAS

CITY           SKY/WX    TMP DP  RH WIND       PRES   REMARKS
MENA           MOCLDY    64  54  68 SW6       29.40R
MOUNT IDA      CLEAR     64  57  78 CALM      29.37R
$$

ARZ009-017-025-026-028-240200-
NORTHEAST ARKANSAS

CITY           SKY/WX    TMP DP  RH WIND       PRES   REMARKS
CORNING        CLOUDY    57  57 100 SW13      29.36R FOG
JONESBORO      CLOUDY    59  59 100 SW12      29.39R
NEWPORT        CLOUDY    60  60 100 S6        29.42R
WALNUT RIDGE   CLOUDY    57  55  94 SW12      29.37R
BLYTHEVILLE    CLOUDY    65  57  75 SW15      29.38S
$$

ARZ022-023-033-042-044-240200-
CENTRAL ARKANSAS

CITY           SKY/WX    TMP DP  RH WIND       PRES   REMARKS
LITTLE ROCK    MOCLDY    62  58  86 S6        29.41S
N LITTLE ROCK  MOCLDY    61  61 100 S6        29.41S
JACKSONVILLE   PTCLDY    61  61 100 S3        29.41S
SEARCY         CLOUDY    61  60  97 S9        29.42R
HOT SPRINGS    PTCLDY    64  58  80 SW8       29.41R
RUSSELLVILLE   CLOUDY    61  58  90 CALM      29.37R
CLINTON        CLOUDY    59  59 100 CALM      29.39S
$$

ARZ036-240200-
EAST ARKANSAS

CITY           SKY/WX    TMP DP  RH WIND       PRES   REMARKS
WEST MEMPHIS   MOCLDY    59  59 100 S9        29.43R
$$

ARZ050-053-066-070-073-240200-
SOUTHWEST ARKANSAS

CITY           SKY/WX    TMP DP  RH WIND       PRES   REMARKS
ARKADELPHIA    FAIR      60  60 100 S5        29.43R
CAMDEN         CLEAR     61  57  88 NE6       29.45R
TEXARKANA      CLEAR     64  55  72 S9        29.44R
EL DORADO      CLEAR     63  57  81 S8        29.47R
DE QUEEN       CLEAR     63  54  72 SW7       29.39R
$$

ARZ056-057-069-240200-
SOUTHEAST ARKANSAS

CITY           SKY/WX    TMP DP  RH WIND       PRES   REMARKS
PINE BLUFF     PTCLDY    62  59  90 S12       29.44R
STUTTGART      CLOUDY    61  57  88 S10       29.44R
MONTICELLO     CLEAR     62  58  86 S9        29.47R

$$





USA.gov is the U.S. government's official web portal to all federal, state and local government web resources and services.